User: anonymous   Login
Location: Unspecified
(0.0000°N, 0.0000°E)
Time: 00:37:03
(UTC+00:00)
Language:

Relay 2 - Orbit

View from above orbital plane
View from above orbital plane
View from above satellite
View from above satellite

Ground track
Ground track

The orbit data is extracted from the following two-line orbital elements,

1   737U 64003A   19021.76304371 -.00000011  00000-0  00000+0 0  9996
2   737  46.4526 147.9024 2589052 231.1413 102.8560  7.39532232486342
Epoch (UTC): 21 January 2019 18:18:46
Eccentricity: 0.2589052
inclination: 46.4526°
perigee height: 1869 km
apogee height: 7631 km
right ascension of ascending node: 147.9024°
argument of perigee: 231.1413°
revolutions per day: 7.39532232
mean anomaly at epoch: 102.8560°
orbit number at epoch: 48634

The dashed part of the orbit path shows where the satellite is in the earth's shadow,  

DLR